Location: Baller�as
(41.9020°N, 0.1554°W)
Time: 00:31:11
(UTC+00:00)

Spot 2 Rocket - Pass Details

Date: 10 August 2020
Orbit: 756 x 773 km, 98.6° (Epoch: 22 September)

Event Time Altitude Azimuth Distance (km) Brightness Sun altitude
Exits shadow 20:37:08 24° 128° (SE) 1,546 4.4 -15.4°
Maximum altitude 20:39:47 45° 70° (ENE) 1,051 4.0 -15.7°
Drops below altitude 10° 20:44:37 10° 359° (N) 2,320 6.5 -16.4°
Sets 20:47:00 0° 353° (N) 3,248 7.5 -16.8°
